Location: Poughquag
(41.6090°N, 73.6820°W)
Time: 21:37:25
(UTC-05:00)

Vanguard 3 - Visible Passes

Search period start: 18 January 2021 00:00
Search period end: 28 January 2021 00:00
Orbit: 508 x 3262 km, 33.3° (Epoch: 18 January)

Date Brightness Start Highest point End Pass type
(mag) Time Alt. Az. Time Alt. Az. Time Alt. Az.
18 Jan 9.5 04:09:07 26° S 04:12:57 35° SSE 04:24:48 10° E visible
18 Jan 9.8 06:15:14 10° WSW 06:25:33 60° S 06:42:42 10° E visible
19 Jan 10.0 02:59:28 20° SE 02:59:28 20° SE 03:06:28 10° E visible
19 Jan 9.5 05:04:03 21° SW 05:10:24 50° SSE 05:24:54 10° E visible
20 Jan 9.3 03:54:20 33° S 03:56:04 36° SSE 04:07:07 10° E visible
20 Jan 9.6 05:58:59 10° WSW 06:08:29 59° S 06:24:44 10° E visible
21 Jan 10.1 02:44:35 19° ESE 02:44:35 19° ESE 02:49:11 10° E visible
21 Jan 9.1 04:49:09 30° SW 04:53:31 50° SSE 05:07:02 10° E visible
22 Jan 9.2 03:39:22 36° SSE 03:39:22 36° SSE 03:49:30 10° E visible
22 Jan 9.4 05:43:55 16° WSW 05:51:32 58° S 06:06:47 10° ESE visible
23 Jan 10.3 02:29:33 15° ESE 02:29:33 15° ESE 02:31:59 10° E visible
23 Jan 8.8 04:34:06 39° SSW 04:36:46 50° SSE 04:49:14 10° E visible
23 Jan 9.7 06:40:14 10° W 06:49:55 56° S 07:06:13 10° ESE visible
24 Jan 9.3 03:24:16 34° SE 03:24:16 34° SE 03:31:58 10° E visible
24 Jan 9.2 05:28:49 22° WSW 05:34:43 55° S 05:48:49 10° ESE visible
25 Jan 10.5 02:14:23 11° ESE 02:14:23 11° ESE 02:14:53 10° E visible
25 Jan 8.5 04:18:57 46° S 04:20:07 49° SSE 04:31:31 10° E visible
25 Jan 9.6 06:24:07 10° W 06:32:59 52° S 06:48:05 10° ESE visible
26 Jan 9.5 03:09:05 28° ESE 03:09:05 28° ESE 03:14:33 10° E visible
26 Jan 8.9 05:13:38 28° WSW 05:18:00 52° S 05:30:55 10° ESE visible
27 Jan 8.5 04:03:45 47° SSE 04:03:45 47° SSE 04:13:52 10° ESE visible
27 Jan 9.5 06:08:19 11° W 06:16:09 47° S 06:29:56 10° ESE visible
